Weather History for Amsterdam, Netherlands

Change the Weather History Date:

Monday, February 18, 2013

  Actual Average Record
Temperature  
Mean Temperature 36 °F -  
Max Temperature 45 °F 46 °F 53 °F (1998)
Min Temperature 28 °F 35 °F 23 °F (2003)
Degree Days  
Heating Degree Days 28    
Moisture  
Dew Point 33 °F    
Average Humidity 87    
Maximum Humidity 100    
Minimum Humidity 57    
Precipitation  
Precipitation 0.00 in - - ()
Sea Level Pressure  
Sea Level Pressure 30.17 in    
Wind  
Wind Speed 3 mph ()    
Max Wind Speed 7 mph    
Max Gust Speed -    
Visibility 3.7 miles    
Events Fog    
Averages and records for this station are not official NWS values.
T = Trace of Precipitation, MM = Missing Value Source: Averaged Metar Reports

Daily Weather History Graph

Daily Weather History Graph

Search for Another Location

Airport:

Trip Planner

Search our weather history database for the weather conditions in past years. The results will help you decide how hot, cold, wet, or windy it might be!

Date:

Astronomy

Feb. 18, 2013 Rise Set
Actual Time 7:50 AM CET 5:59 PM CET
Civil Twilight 7:15 AM CET 6:34 PM CET
Nautical Twilight 6:35 AM CET 7:14 PM CET
Astronomical Twilight 5:56 AM CET 7:53 PM CET
Moon 11:12 AM CET (2/18) 2:36 AM CET (2/18)
Length of Visible Light 11h 19m
Length of Day
10h 09m
First Quarter, 56% of the Moon is Illuminated
Feb 18
First Quarter
Feb 25
Full
Mar 4
Last Quarter
Mar 11
New
Mar 19
First Quarter

Hourly Weather History & Observations

Time (CET) Temp. Windchill Dew Point Humidity Pressure Visibility Wind Dir Wind Speed Gust Speed Precip Events Conditions
12:25 AM 33.8 °F 30.8 °F 32.0 °F 93% 30.21 in 3.1 mi NE 3.5 mph - N/A   Mist
12:55 AM 32.0 °F 28.7 °F 32.0 °F 100% 30.21 in 2.8 mi ENE 3.5 mph - N/A   Mist
1:00 AM 32 °F - 32 °F 98% 30.22 in 2 mi ENE 4.5 mph - -   Mist
1:25 AM 32.0 °F 27.5 °F 32.0 °F 100% 30.18 in 2.8 mi ENE 4.6 mph - N/A   Mist
1:55 AM 32.0 °F 28.7 °F 32.0 °F 100% 30.18 in 2.5 mi ENE 3.5 mph - N/A   Mist
2:25 AM 32.0 °F 27.5 °F 30.2 °F 93% 30.18 in 2.5 mi ENE 4.6 mph - N/A   Mist
2:55 AM 30.2 °F - 30.2 °F 100% 30.18 in 2.2 mi ENE 2.3 mph - N/A   Mist
3:25 AM 30.2 °F 26.7 °F 28.4 °F 93% 30.18 in 2.2 mi ENE 3.5 mph - N/A Fog Partly Cloudy
3:55 AM 32.0 °F - 32.0 °F 100% 30.18 in 2.2 mi Variable 2.3 mph - N/A   Scattered Clouds
4:00 AM 32 °F - 31 °F 97% 30.19 in 2 mi NE 2.2 mph - -   Mist
4:25 AM 30.2 °F 26.7 °F 30.2 °F 100% 30.18 in - ENE 3.5 mph - N/A   Mostly Cloudy
4:55 AM 30.2 °F 26.7 °F 30.2 °F 100% 30.18 in 2.2 mi ENE 3.5 mph - N/A   Mostly Cloudy
5:25 AM 32.0 °F - 30.2 °F 93% 30.18 in 2.2 mi Variable 1.2 mph - N/A   Mostly Cloudy
5:55 AM 32.0 °F 28.7 °F 30.2 °F 93% 30.18 in 2.2 mi ENE 3.5 mph - N/A   Mostly Cloudy
6:25 AM 32.0 °F - 32.0 °F 100% 30.18 in 2.2 mi Variable 2.3 mph - N/A   Mostly Cloudy
6:55 AM 33.8 °F - 32.0 °F 93% 30.18 in - Variable 1.2 mph - N/A   Mostly Cloudy
7:00 AM 33 °F - 32 °F 95% 30.19 in 2 mi ENE 2.2 mph - -   Mist
7:25 AM 33.8 °F 30.8 °F 32.0 °F 93% 30.18 in - East 3.5 mph - N/A   Mostly Cloudy
7:55 AM 33.8 °F 30.8 °F 32.0 °F 93% 30.18 in 2.5 mi East 3.5 mph - N/A   Scattered Clouds
8:25 AM 33.8 °F - 32.0 °F 93% 30.18 in 2.5 mi Variable 2.3 mph - N/A   Partly Cloudy
8:55 AM 32.0 °F 28.7 °F 32.0 °F 100% 30.18 in 2.2 mi East 3.5 mph - N/A   Partly Cloudy
9:55 AM 35.6 °F 31.7 °F 33.8 °F 93% 30.18 in 3.1 mi ESE 4.6 mph - N/A   Partly Cloudy
10:00 AM 37 °F - 34 °F 84% 30.21 in 3 mi SE 4.5 mph - -   Mist
10:25 AM 37.4 °F 33.8 °F 33.8 °F 87% 30.18 in 3.7 mi SE 4.6 mph - N/A   Unknown
10:55 AM 39.2 °F 37.0 °F 33.8 °F 81% 30.18 in 4.3 mi SE 3.5 mph - N/A   Unknown
11:25 AM 39.2 °F 35.0 °F 33.8 °F 81% 30.18 in - South 5.8 mph - N/A   Clear
11:55 AM 41.0 °F 38.0 °F 33.8 °F 76% 30.18 in - SSE 4.6 mph - N/A   Clear
12:25 PM 42.8 °F 41.1 °F 35.6 °F 76% 30.18 in - SSE 3.5 mph - N/A   Clear
12:55 PM 42.8 °F 41.1 °F 32.0 °F 66% 30.18 in - SSE 3.5 mph - N/A   Clear
1:00 PM 43 °F - 34 °F 60% 30.20 in 8 mi South 2.2 mph - -   Partly Cloudy
1:25 PM 42.8 °F 41.1 °F 32.0 °F 66% 30.18 in 6.2 mi SSE 3.5 mph - N/A   Partly Cloudy
1:55 PM 44.6 °F - 32.0 °F 61% 30.18 in 6.2 mi Variable 2.3 mph - N/A   Partly Cloudy
2:25 PM 44.6 °F - 33.8 °F 66% 30.15 in 6.2 mi Variable 2.3 mph - N/A   Partly Cloudy
2:55 PM 44.6 °F - 32.0 °F 61% 30.15 in 6.2 mi Variable 2.3 mph - N/A   Partly Cloudy
3:25 PM 44.6 °F - 30.2 °F 57% 30.15 in 6.2 mi Variable 2.3 mph - N/A   Scattered Clouds
3:55 PM 42.8 °F 40.1 °F 35.6 °F 76% 30.15 in 6.2 mi West 4.6 mph - N/A   Scattered Clouds
4:00 PM 42 °F - 35 °F 69% 30.17 in 8 mi NW 6.7 mph - -   Overcast
4:25 PM 41.0 °F 36.4 °F 35.6 °F 81% 30.15 in 5.6 mi NW 6.9 mph - N/A   Partly Cloudy
4:55 PM 41.0 °F 36.4 °F 35.6 °F 81% 30.15 in 5.0 mi NNW 6.9 mph - N/A   Partly Cloudy
5:25 PM 39.2 °F 35.0 °F 33.8 °F 81% 30.15 in 4.3 mi North 5.8 mph - N/A   Partly Cloudy
5:55 PM 39.2 °F 35.9 °F 33.8 °F 81% 30.15 in 4.3 mi North 4.6 mph - N/A   Partly Cloudy
6:25 PM 37.4 °F 34.9 °F 33.8 °F 87% 30.15 in 3.7 mi North 3.5 mph - N/A   Partly Cloudy
6:55 PM 37.4 °F 34.9 °F 35.6 °F 93% 30.15 in 3.1 mi NNW 3.5 mph - N/A   Partly Cloudy
7:00 PM 37 °F - 34 °F 86% 30.16 in 3 mi NNW 2.2 mph - -   Mist
7:25 PM 35.6 °F 31.7 °F 33.8 °F 93% 30.15 in - NNW 4.6 mph - N/A   Partly Cloudy
7:55 PM 37.4 °F 33.8 °F 35.6 °F 93% 30.12 in - North 4.6 mph - N/A   Partly Cloudy
8:25 PM 37.4 °F 33.8 °F 35.6 °F 93% 30.15 in - NNE 4.6 mph - N/A   Partly Cloudy
8:55 PM 35.6 °F 31.7 °F 33.8 °F 93% 30.15 in - NNE 4.6 mph - N/A   Partly Cloudy
9:25 PM 35.6 °F 31.7 °F 33.8 °F 93% 30.15 in - North 4.6 mph - N/A   Partly Cloudy
9:55 PM 35.6 °F 31.7 °F 33.8 °F 93% 30.15 in - North 4.6 mph - N/A   Partly Cloudy
10:00 PM 36 °F - 33 °F 87% 30.15 in 3 mi North 4.5 mph - -   Mist
10:25 PM 33.8 °F 30.8 °F 32.0 °F 93% 30.12 in - NNW 3.5 mph - N/A   Mist
10:55 PM 32.0 °F - 32.0 °F 100% 30.12 in 2.5 mi NW 2.3 mph - N/A   Partly Cloudy
11:25 PM 33.8 °F - 32.0 °F 93% 30.12 in - WNW 2.3 mph - N/A   Partly Cloudy
11:55 PM 32.0 °F 28.7 °F 30.2 °F 93% 30.12 in 2.5 mi WNW 3.5 mph - N/A   Mist